Theta_e
325 326 325 324 324 325 324 324 323 326 343 354 355 357 356 353 355 363 364 360 362 365 366 367 368 370 368 366 369 366 364 369 366 353 345 347 346 345 344 342 343 343 341 341 341 341 343 345 348 349 349 350 351 352 353 353 354 354 353 353 352 351 351 352 352 351 350 349 349 349 349 350 350 351 353 353 354 354 352 351 352 353 352 352 352 350
323 324 325 325 325 324 322 323 322 327 344 353 352 353 354 352 355 361 364 361 361 364 365 366 369 369 367 365 365 367 367 367 366 356 345 345 346 346 345 344 345 344 341 341 340 340 344 346 347 348 347 349 351 351 353 353 353 353 353 353 353 350 351 351 351 351 350 350 350 350 350 350 351 352 353 353 354 354 353 352 352 353 352 351 352 351
323 323 325 325 322 322 321 322 321 322 340 352 351 351 352 356 358 358 361 361 361 364 365 365 367 367 365 362 361 366 369 370 368 365 356 346 346 347 343 344 346 343 342 341 339 340 344 346 346 346 346 348 351 351 352 352 353 353 352 352 352 351 351 351 351 352 351 351 351 351 351 351 352 352 353 353 354 354 355 354 352 351 350 351 352 352
321 322 324 323 321 322 321 321 321 319 332 351 352 347 349 356 356 353 357 361 362 363 363 364 365 363 362 361 363 363 364 368 367 369 369 359 355 352 344 344 345 342 342 340 338 341 343 346 345 345 347 348 350 350 351 352 352 351 352 352 352 351 350 350 351 351 352 353 352 352 352 352 352 352 352 353 354 355 356 355 353 352 350 351 353 352
322 323 322 323 321 322 321 320 321 317 322 343 352 346 348 353 352 353 357 360 361 361 360 362 359 358 360 362 366 364 361 366 366 368 372 368 369 365 355 351 346 341 340 337 338 342 342 344 344 345 347 348 349 349 350 352 351 351 352 352 352 351 351 350 351 351 353 353 352 352 353 353 352 352 354 354 356 357 356 356 355 354 351 351 352 352
323 323 322 323 322 321 320 319 320 318 317 331 348 348 349 354 354 356 356 356 358 358 360 359 353 354 359 360 364 365 363 365 366 368 370 369 372 370 363 361 354 343 338 337 338 341 342 343 345 346 347 348 349 348 349 350 350 351 351 351 352 351 350 350 350 351 352 352 352 352 353 354 353 353 356 356 356 357 356 356 356 354 353 353 352 351
323 323 322 323 323 322 321 319 319 321 316 321 338 347 350 354 355 356 354 351 351 353 359 357 350 352 357 358 361 363 363 364 365 366 367 368 371 370 367 369 367 350 336 337 339 340 342 343 344 347 347 348 348 348 349 350 350 351 351 351 352 351 350 349 349 350 350 350 351 352 353 354 353 354 357 356 356 357 356 356 357 355 354 355 353 352
323 323 323 323 323 321 321 319 320 323 318 320 336 346 351 354 355 355 352 348 347 350 356 354 349 352 353 357 361 361 362 364 365 366 366 367 368 370 369 369 373 364 343 336 339 340 341 343 345 346 347 348 348 348 348 349 351 351 352 352 352 352 349 348 349 350 349 350 351 352 352 353 353 354 356 356 356 356 355 356 358 355 355 356 355 353
324 322 323 323 322 320 320 320 321 324 321 329 343 346 349 353 355 355 351 351 351 349 350 350 347 352 354 357 362 362 362 363 365 366 366 367 366 367 368 365 368 371 355 338 338 340 339 343 345 346 347 348 348 348 347 349 350 350 351 352 352 352 348 347 351 351 349 350 351 351 351 352 352 353 355 357 357 355 355 356 356 354 356 358 357 356
323 323 324 322 321 320 320 322 321 322 325 336 346 346 349 353 353 355 353 354 355 348 345 345 344 351 353 356 360 361 361 364 367 367 365 367 365 363 365 362 362 371 367 344 337 339 338 343 346 345 346 347 348 349 347 348 350 350 351 351 352 352 349 348 350 351 350 350 351 350 351 352 352 352 354 356 357 356 356 357 355 354 357 358 357 357
322 324 327 324 324 322 320 323 323 325 330 337 343 345 348 349 352 361 357 350 347 343 341 342 342 348 351 353 357 360 363 366 369 368 366 365 363 360 362 362 361 370 371 353 341 339 338 342 345 345 346 346 348 349 348 348 349 350 351 351 352 351 351 350 349 350 351 350 352 352 352 352 352 352 352 352 355 356 357 357 355 354 357 358 357 356
323 323 326 327 329 327 322 327 330 333 333 333 340 342 340 338 341 350 352 348 345 340 337 340 342 344 349 353 356 360 365 369 369 367 365 363 361 360 360 359 360 367 369 361 352 343 337 341 344 345 346 346 348 348 349 350 350 351 351 352 353 350 351 352 349 350 351 350 352 354 355 354 353 354 353 352 354 355 356 357 355 354 357 358 357 356
325 325 328 329 332 332 328 329 331 333 333 332 335 334 332 333 334 338 342 344 341 334 332 340 343 344 351 357 357 358 361 366 368 365 361 360 359 360 360 357 360 367 367 365 363 350 338 339 342 344 346 346 347 348 349 350 351 352 351 352 353 351 351 352 350 350 351 350 350 354 357 356 355 355 354 354 353 354 355 356 355 354 355 357 356 356
321 325 327 328 329 332 333 329 325 325 330 331 327 327 329 331 331 334 336 336 332 328 332 341 343 346 354 358 358 359 358 360 362 360 359 359 360 361 360 358 360 364 364 364 365 357 344 340 340 343 346 346 347 347 348 351 352 353 352 351 352 353 353 352 351 351 352 351 350 352 356 356 355 354 353 354 353 352 354 355 355 354 353 355 355 356
316 320 327 329 327 331 334 333 329 327 329 332 332 332 330 328 330 331 331 329 327 330 336 341 343 347 352 354 355 358 358 358 358 357 359 361 361 359 359 361 361 360 358 358 360 361 354 348 343 341 343 345 347 347 348 351 352 353 353 352 351 352 353 353 353 352 352 352 350 350 353 354 354 354 353 354 354 352 353 354 354 354 354 354 355 356
316 320 329 330 330 332 332 330 332 328 326 330 332 331 327 328 331 329 327 326 327 335 343 346 349 353 354 354 355 357 358 359 358 357 358 361 362 360 361 363 359 356 357 358 363 364 357 352 353 349 345 346 346 346 348 351 353 353 353 353 352 352 352 353 354 353 352 352 351 350 352 353 353 353 353 353 354 353 353 354 354 355 354 353 354 355
315 320 326 328 332 333 330 330 330 326 326 328 325 324 328 329 329 326 323 324 332 342 345 347 353 355 353 355 358 359 360 359 359 357 357 358 359 360 361 359 355 354 359 362 366 367 357 351 352 353 351 349 347 347 348 350 353 353 352 353 353 352 352 353 354 353 352 353 353 351 351 353 353 353 353 353 354 354 354 355 355 355 355 354 354 355
317 319 323 327 330 328 328 330 328 327 330 326 319 323 327 324 329 332 324 323 337 348 347 346 351 351 349 354 359 361 362 360 358 356 354 355 356 355 355 355 353 354 356 358 361 360 354 349 349 351 352 351 350 350 350 351 353 353 352 353 353 353 353 354 355 355 353 353 355 353 352 353 353 353 354 354 353 354 355 356 357 357 357 356 355 356
319 318 323 328 325 325 327 328 324 326 330 325 321 326 326 320 325 329 321 322 340 351 350 348 348 346 347 352 356 359 362 359 356 353 352 353 354 354 354 354 354 353 353 355 357 358 355 351 349 351 352 352 351 353 353 353 353 354 353 353 353 353 351 352 354 355 355 353 354 354 354 353 353 353 354 354 353 354 355 355 357 358 358 357 356 356
322 321 322 327 322 321 327 327 321 323 326 326 326 327 327 325 325 324 320 325 340 349 350 349 348 349 353 357 357 358 359 356 352 351 350 351 350 351 352 351 350 350 350 351 354 356 357 356 353 352 351 351 352 353 353 354 355 354 355 355 354 354 353 353 355 355 356 355 353 354 355 355 354 353 353 354 354 355 356 356 356 357 357 358 358 357
325 324 320 325 322 319 322 324 323 323 323 322 322 320 320 323 324 322 319 323 336 346 348 348 349 350 353 357 358 357 355 352 350 348 347 347 347 347 348 348 347 346 345 346 350 354 355 356 356 353 351 352 353 353 352 353 356 356 356 355 356 356 356 356 357 357 357 356 354 354 356 356 355 353 353 354 355 355 356 356 356 356 357 357 358 357
322 324 321 320 316 314 320 325 324 326 326 322 321 320 320 321 320 318 320 325 336 342 341 344 350 351 351 352 354 355 353 351 349 346 345 345 345 346 345 345 344 344 343 343 348 353 353 354 355 355 354 354 355 355 354 352 353 356 358 357 356 356 356 357 358 358 358 358 357 356 356 356 355 354 354 354 355 355 355 356 356 355 355 356 357 357
323 327 324 323 322 318 321 324 322 323 325 324 324 323 323 323 321 320 324 333 339 339 339 344 349 352 352 351 353 354 353 350 347 346 344 342 343 343 343 343 342 343 342 341 345 351 354 353 354 355 355 355 355 355 355 353 352 354 357 358 358 357 357 357 357 358 358 359 359 358 357 357 356 355 355 355 356 355 355 355 355 354 354 354 354 355
327 327 326 332 336 325 320 328 329 327 324 322 322 325 324 322 324 328 334 342 343 340 342 348 349 352 353 352 351 352 353 350 345 344 342 341 341 341 341 342 342 342 341 340 342 347 351 352 352 353 353 353 354 354 354 353 352 353 354 355 357 358 358 357 357 358 360 360 361 360 359 359 357 356 355 355 355 355 355 355 355 354 352 352 352 352
324 328 332 336 331 318 321 332 330 328 328 323 321 324 325 323 327 334 339 345 343 337 340 348 351 351 351 351 349 350 354 351 344 342 340 340 340 340 340 341 340 341 341 340 340 341 345 348 349 350 351 351 352 352 353 352 351 351 351 352 355 357 357 356 357 357 355 355 358 359 358 357 357 357 356 356 356 355 356 356 355 354 352 351 351 351
325 331 337 340 332 318 319 326 323 324 327 322 320 323 323 324 330 334 338 343 343 339 340 345 348 350 349 348 349 351 354 350 344 342 340 340 340 339 339 339 339 340 340 340 339 338 339 342 343 347 349 350 351 351 352 353 351 350 351 351 353 354 353 354 355 356 353 352 352 351 351 353 356 358 357 357 356 356 356 356 355 354 352 351 351 350
334 333 332 339 340 330 329 335 332 327 321 315 317 322 321 323 331 336 338 341 342 343 345 344 346 350 348 347 348 351 353 349 343 341 341 340 340 338 338 339 338 339 339 339 338 337 337 339 339 341 344 347 350 351 352 353 353 353 353 353 353 353 352 352 353 353 352 351 350 348 349 351 354 357 358 357 357 356 355 355 355 354 353 351 351 351
339 328 323 328 331 330 335 338 329 321 318 314 315 317 319 324 330 334 334 337 341 344 346 346 346 348 348 347 347 348 349 348 344 342 341 340 339 338 338 338 338 338 338 337 337 336 337 338 338 339 340 341 344 348 350 351 352 353 353 353 353 353 353 353 353 353 351 350 348 348 349 350 350 352 355 357 358 357 355 354 353 352 351 351 351 351
334 325 321 321 321 322 326 324 319 320 319 317 316 316 316 320 326 331 333 339 346 345 345 347 346 345 346 345 345 345 344 345 344 342 340 338 339 338 337 338 338 337 337 337 337 336 336 336 336 337 338 338 339 342 345 347 349 350 350 350 351 352 353 354 354 353 352 350 348 348 350 349 349 351 353 354 355 356 355 354 352 351 350 350 350 350
330 328 324 321 322 323 323 321 321 322 318 316 318 317 318 321 328 335 338 342 347 344 343 346 345 344 344 342 342 341 339 341 341 340 339 338 338 337 337 337 337 336 336 336 336 336 336 335 335 335 336 337 337 339 340 342 345 347 347 348 349 349 351 354 355 353 354 353 352 352 352 352 353 354 354 354 354 355 354 353 353 351 351 351 351 351
325 324 324 330 329 323 323 322 319 320 319 317 318 319 320 322 325 334 340 342 343 342 342 344 343 344 344 340 338 337 337 339 339 340 339 337 336 337 337 336 336 336 335 335 335 335 335 336 335 335 336 336 336 337 338 340 342 343 343 345 346 346 347 349 350 352 353 355 356 356 355 353 353 354 354 354 354 354 354 353 353 351 350 350 351 352
323 322 328 338 332 322 321 320 317 321 322 319 318 319 319 319 318 327 340 342 341 341 341 341 342 342 341 337 336 336 337 337 338 339 338 336 336 336 336 336 335 334 334 334 334 334 334 334 334 333 334 335 336 336 336 339 340 341 341 341 342 344 344 344 344 345 347 349 352 356 357 356 355 355 356 356 356 355 355 354 354 353 352 351 351 352
326 326 326 329 327 322 321 320 318 321 321 320 321 319 318 320 318 324 337 342 340 340 340 339 340 339 337 336 336 336 336 336 336 336 336 336 336 336 335 335 333 332 333 333 333 333 332 333 333 332 332 334 335 335 336 338 340 340 339 338 338 341 341 341 342 342 343 344 345 348 351 354 354 354 353 354 354 354 355 355 355 355 355 355 353 353
331 333 328 325 324 322 324 327 324 318 317 323 328 322 318 318 320 327 336 339 339 338 339 339 338 338 336 336 336 335 336 336 335 335 334 334 334 334 334 333 332 332 331 332 332 330 329 330 331 329 329 331 334 335 335 337 339 337 334 332 334 337 338 338 339 339 340 341 341 343 344 346 348 350 350 350 351 351 352 352 353 354 354 355 355 355
331 331 331 328 323 322 330 333 322 316 324 331 328 323 323 323 326 334 336 336 338 338 337 338 337 336 336 336 336 335 334 334 334 333 333 333 332 332 332 331 331 331 331 333 332 328 326 328 329 326 324 325 329 334 335 336 337 336 333 331 331 333 334 333 334 335 337 338 339 341 342 342 343 344 346 347 348 349 349 349 350 351 351 352 354 354
329 330 335 335 326 323 329 329 321 322 332 333 324 322 328 328 331 338 337 334 336 337 337 338 336 335 336 337 337 338 335 332 332 333 332 332 332 331 331 330 330 330 330 329 328 324 323 326 326 324 323 324 328 333 334 334 335 335 334 333 331 330 330 329 329 331 334 336 336 338 341 343 343 342 343 344 345 346 347 347 348 349 349 351 352 354
335 334 333 334 329 323 323 327 330 327 324 325 327 325 323 323 329 338 338 334 334 335 335 336 335 334 335 335 336 337 334 330 331 331 330 330 330 329 329 329 328 328 326 324 321 321 322 324 323 323 325 328 330 333 333 332 333 334 334 333 332 332 331 330 329 328 331 334 335 335 337 339 339 339 341 343 344 344 343 344 344 345 346 349 351 353
333 330 329 331 331 329 328 328 330 326 320 326 334 329 321 322 330 337 336 332 332 334 334 335 335 334 335 334 333 333 331 331 332 331 327 326 325 324 325 326 325 323 322 320 321 322 322 322 322 322 324 326 327 330 331 330 330 332 332 332 332 333 332 332 330 329 330 332 333 333 334 335 334 334 337 340 341 342 342 343 344 343 343 346 349 351
329 331 335 334 331 332 331 325 323 325 326 334 342 335 323 322 327 334 336 333 331 331 332 333 334 334 334 333 332 332 333 334 333 330 325 322 321 320 321 322 321 320 320 320 321 322 321 321 322 322 323 323 324 326 328 328 328 328 328 328 329 330 332 333 331 330 329 331 331 330 330 331 332 333 334 335 336 337 339 342 345 345 344 344 345 348
330 334 334 330 328 331 329 322 323 329 329 332 336 330 321 321 328 333 333 333 332 331 331 332 334 333 333 332 333 334 333 332 330 326 321 319 318 319 319 318 318 319 321 321 321 321 321 321 321 322 322 322 323 323 324 325 325 326 326 326 326 327 329 332 332 329 328 331 332 331 328 326 327 331 332 332 334 336 336 337 340 343 345 346 345 346
327 330 327 323 324 326 323 319 324 332 333 329 327 326 325 325 325 326 327 331 334 331 328 329 329 329 329 329 329 329 327 325 323 320 319 318 317 317 317 317 319 321 320 320 320 320 320 320 321 321 321 321 321 322 323 324 324 325 325 325 325 325 326 328 329 327 327 330 332 332 329 326 323 325 329 331 333 333 333 334 335 338 343 347 348 347
324 326 326 323 320 322 323 322 325 332 332 326 325 331 333 325 320 324 327 329 329 327 325 325 325 324 324 323 322 322 321 319 319 318 318 318 318 316 316 317 319 320 319 319 319 319 319 319 320 321 320 320 321 321 321 322 323 323 324 323 323 323 324 325 325 325 327 330 331 331 330 327 323 320 325 331 332 330 332 333 333 336 343 347 346 344
328 325 326 325 321 320 321 322 326 333 333 329 329 335 335 329 327 331 331 326 326 326 324 323 322 321 320 320 319 319 318 318 318 319 319 319 318 317 316 317 318 318 318 318 317 318 318 318 319 320 320 320 320 320 320 320 321 321 321 321 321 321 322 324 324 325 327 329 329 329 328 328 325 321 323 328 329 329 332 333 332 337 344 349 347 344
327 325 328 328 323 322 320 318 324 334 335 333 335 335 332 332 334 334 328 324 325 325 323 322 322 319 318 318 318 318 318 318 318 319 319 320 318 317 316 317 318 318 318 317 317 317 318 318 319 319 319 319 318 319 319 319 319 319 319 319 319 319 320 322 323 324 325 325 326 327 328 328 326 324 324 326 327 330 332 332 332 335 340 343 343 340
327 332 337 332 326 330 332 327 328 334 333 330 334 334 331 331 333 331 327 325 324 322 321 321 321 319 318 318 318 318 318 317 318 318 319 319 318 317 316 317 317 318 317 317 317 317 318 318 319 318 318 318 318 317 318 317 318 318 318 318 319 319 319 320 321 322 323 324 324 326 328 328 326 326 326 326 328 330 331 330 331 331 331 332 334 333
324 331 337 332 325 330 335 332 330 331 330 328 329 330 329 329 329 329 328 327 325 322 321 321 321 320 318 318 318 319 317 317 317 318 319 320 318 316 317 318 317 317 317 317 317 318 318 318 318 317 317 317 317 317 317 317 317 318 318 318 319 319 319 319 319 321 322 323 324 325 326 327 327 326 326 327 329 329 329 329 328 327 327 328 331 332
323 327 331 329 327 326 328 330 330 328 328 329 329 329 329 329 328 328 328 328 326 324 322 322 322 322 320 319 319 319 317 317 318 318 319 320 318 316 316 317 317 317 317 316 317 317 317 317 317 316 316 316 317 317 317 317 317 317 318 318 318 318 318 318 319 319 320 322 323 324 324 326 327 326 326 327 328 328 328 328 326 325 326 328 330 331
325 325 325 327 329 326 324 329 331 327 326 329 328 327 328 327 327 328 328 327 326 325 321 319 319 321 322 321 320 320 319 318 318 319 320 320 317 316 316 316 316 316 316 316 317 316 316 316 316 315 316 317 317 317 316 316 316 316 317 318 318 318 319 318 318 319 319 319 321 322 322 323 325 326 326 326 327 327 327 326 324 324 325 327 328 329
326 326 326 324 325 327 327 329 330 327 325 327 329 328 326 325 324 325 325 325 324 324 322 320 318 318 319 318 318 319 321 320 318 318 320 318 315 315 316 316 315 316 316 315 316 315 314 314 315 315 316 316 316 316 315 315 315 316 317 318 318 318 318 318 318 318 318 318 319 320 321 322 323 326 326 326 326 325 324 323 322 322 322 323 325 328
327 328 331 327 325 330 332 329 328 328 326 325 326 328 328 327 326 325 324 325 325 325 326 324 319 316 316 315 315 318 322 321 317 316 317 316 315 315 316 316 315 315 314 314 314 313 313 314 315 316 316 315 314 315 316 317 318 319 320 320 320 319 319 319 319 319 319 319 319 319 320 321 323 325 327 326 325 324 324 323 322 321 321 324 326 328
328 329 334 335 333 332 330 327 328 329 328 325 324 327 329 330 330 329 327 326 327 324 324 325 323 321 319 316 314 315 319 318 316 315 315 315 315 315 316 316 315 314 314 313 313 313 314 315 316 315 314 314 315 317 318 320 320 320 320 320 320 320 320 319 320 320 320 319 319 318 319 320 321 324 325 325 324 324 324 323 322 321 323 325 326 326
Wind_Speed
3 2 1 5 6 6 7 6 6 2 1 9 10 8 9 7 4 3 5 8 7 5 4 4 6 6 4 4 2 0 0 4 4 11 13 13 12 9 10 10 10 10 10 17 24 28 31 30 30 32 31 31 31 31 32 32 30 30 28 26 24 22 20 20 23 23 20 20 16 15 17 17 17 18 18 17 15 14 14 13 14 14 13 13 12 13
3 3 5 8 8 9 8 5 4 4 4 7 6 7 6 4 3 5 7 5 3 2 2 3 6 6 3 4 4 3 2 3 3 9 14 14 12 9 10 11 9 8 10 15 18 23 30 31 31 31 29 31 31 31 32 32 31 31 29 28 26 24 21 21 23 22 19 18 16 15 17 17 17 19 19 17 16 15 14 14 16 15 15 14 13 14
2 4 8 10 8 8 9 6 5 5 6 5 3 6 4 3 4 7 8 7 2 2 2 3 5 4 5 6 3 4 3 3 3 2 9 14 12 9 11 11 8 9 12 12 12 19 28 30 31 29 28 31 34 32 32 32 32 31 30 29 28 26 23 22 22 21 18 16 14 12 13 14 16 17 17 16 15 16 14 15 16 15 15 14 14 14
3 6 11 11 7 7 10 8 7 5 4 5 5 5 4 6 5 3 4 7 3 2 3 4 4 3 4 4 1 3 4 3 3 4 1 7 9 10 12 10 10 12 13 12 10 15 23 28 29 28 27 30 33 32 31 32 32 31 31 30 29 27 25 23 22 22 19 16 15 12 10 13 14 14 14 15 16 15 14 14 15 14 14 14 14 14
6 10 10 9 8 9 10 9 7 5 4 6 8 6 6 9 6 5 8 7 3 4 5 6 4 1 0 1 3 2 4 3 3 4 4 3 3 7 9 8 10 13 13 11 11 14 20 24 26 28 29 30 31 32 32 33 33 31 32 32 30 28 28 25 22 24 21 18 19 17 15 16 16 15 16 18 18 16 15 14 14 14 14 14 15 14
9 12 7 7 9 8 8 9 7 6 5 5 8 9 12 12 7 12 15 10 3 1 5 6 2 1 1 2 4 1 3 3 3 3 2 3 2 4 7 7 8 11 13 11 11 15 19 22 26 28 30 30 30 32 33 33 33 32 33 32 29 28 29 27 24 25 22 19 21 21 21 22 20 19 20 20 20 19 17 15 14 14 14 14 14 14
8 10 6 9 10 8 8 9 8 7 5 3 8 10 13 13 12 18 18 9 3 3 7 9 2 2 2 3 5 2 1 3 2 2 2 2 2 1 5 5 5 8 11 10 11 16 19 22 25 26 29 30 30 32 32 32 32 32 33 32 29 27 28 28 25 24 23 20 20 21 23 24 23 22 22 21 20 18 17 16 15 15 14 13 12 13
7 8 7 9 10 8 7 7 8 7 6 4 8 12 15 14 16 20 16 7 2 4 6 9 2 3 3 3 5 6 5 5 4 3 3 1 1 3 2 3 4 6 9 10 11 14 18 22 26 27 29 31 31 32 31 31 32 32 32 31 29 26 27 29 26 24 23 20 19 22 24 24 23 22 22 20 19 17 16 16 15 15 14 13 12 12
6 8 8 9 9 7 6 8 8 7 5 5 9 17 17 15 16 16 11 4 2 4 6 9 3 4 2 2 5 7 7 7 7 6 5 3 2 5 4 3 3 4 7 10 12 14 18 23 27 29 30 30 32 33 32 30 31 32 31 30 29 26 26 29 27 24 24 21 20 22 23 23 21 21 21 20 19 17 16 15 15 15 15 14 13 11
6 8 8 9 7 7 7 9 9 7 5 4 13 15 11 9 9 9 6 4 4 2 5 10 5 4 2 2 4 6 7 8 8 6 5 4 4 6 5 4 3 2 5 9 12 17 22 25 29 31 31 30 31 33 33 31 30 31 30 29 30 27 26 28 27 24 24 21 20 21 21 21 21 20 21 21 20 19 17 15 14 15 16 14 13 12
7 8 5 6 7 8 9 9 8 8 7 8 14 11 5 5 4 4 4 5 4 2 5 11 8 4 3 3 5 5 5 8 8 6 6 6 7 9 7 4 4 3 5 8 10 16 24 27 30 31 31 31 31 32 32 30 30 31 30 29 30 28 26 27 26 24 23 21 20 19 19 21 21 20 22 22 22 21 19 17 16 16 16 15 14 13
6 6 5 4 6 7 8 8 7 7 7 7 9 9 7 3 4 4 4 5 3 4 5 11 9 4 3 4 7 6 4 9 11 9 10 11 10 10 7 4 4 3 4 6 6 12 18 21 25 29 29 29 30 30 30 30 31 32 31 29 29 29 27 27 26 25 24 23 21 19 19 20 20 20 21 22 23 23 22 20 18 16 16 16 15 13
4 5 6 4 5 5 5 5 3 1 3 6 7 8 7 3 1 2 1 2 3 6 5 13 9 2 1 3 6 10 7 8 10 9 12 13 12 11 8 6 5 4 4 6 6 9 13 15 19 24 26 28 29 30 31 31 31 32 32 31 29 29 28 27 27 25 25 24 23 22 20 19 20 20 20 20 21 24 24 22 20 18 18 19 17 15
3 5 5 3 4 3 6 4 2 1 1 4 6 7 6 4 3 3 3 3 4 5 4 12 8 1 2 2 1 7 7 7 8 6 8 9 10 8 4 1 1 0 1 3 4 5 8 14 20 23 25 27 29 30 31 31 32 32 33 32 31 29 28 27 27 26 25 25 25 24 22 20 21 21 20 19 20 23 25 23 22 20 19 20 18 17
2 4 5 4 4 2 4 4 5 4 1 2 5 5 5 6 4 4 5 4 4 3 4 5 3 1 2 1 3 1 3 5 6 4 4 4 4 4 4 4 3 5 7 8 6 5 3 5 14 21 25 27 29 30 31 31 32 33 33 34 33 31 29 28 28 27 27 26 26 26 24 21 21 21 21 21 19 21 24 24 22 21 20 19 18 17
3 4 5 4 4 4 5 3 4 4 1 2 2 5 4 5 4 4 5 4 4 4 3 2 0 1 2 2 4 4 4 6 6 6 6 3 2 6 6 4 4 8 9 7 5 5 7 10 7 9 16 22 27 29 30 31 33 33 34 34 34 33 31 30 29 29 28 27 26 26 26 23 20 20 22 23 21 21 23 23 22 22 20 18 17 16
1 3 6 3 4 5 6 4 3 4 2 2 1 3 3 4 4 4 3 4 6 4 1 2 2 0 1 1 5 5 3 7 7 8 8 5 4 4 4 5 7 9 8 7 4 4 1 11 15 10 9 13 18 19 23 30 33 34 35 34 33 33 32 31 30 30 29 28 26 27 28 26 22 21 22 24 24 22 22 22 21 21 20 18 18 17
2 2 7 3 5 3 3 5 4 4 5 3 1 3 4 1 2 3 3 4 4 3 2 3 3 1 2 1 3 3 2 6 7 9 10 8 8 7 6 6 7 8 7 6 5 5 5 9 5 4 7 13 16 14 15 22 28 32 34 35 34 33 33 32 32 31 30 30 29 28 29 28 26 24 22 22 23 23 22 22 21 20 20 19 19 19
2 1 6 4 2 1 5 6 2 3 3 4 3 2 1 2 2 1 2 4 3 3 2 3 3 1 1 1 2 2 2 5 7 9 10 11 11 9 9 8 7 7 6 4 2 1 7 12 10 10 3 8 13 14 13 15 20 25 28 31 34 35 36 35 34 33 32 31 30 29 29 29 28 26 24 23 22 22 22 22 22 21 20 19 19 20
1 4 3 6 2 3 5 3 2 3 4 2 1 2 1 3 3 2 2 3 5 4 3 2 1 2 2 2 3 2 4 4 7 9 9 10 11 9 9 9 7 7 6 4 4 3 6 12 12 10 6 5 7 9 12 14 16 21 23 25 29 31 32 33 34 33 32 32 31 30 30 29 29 28 26 24 23 23 22 22 22 22 21 19 18 20
2 4 1 5 3 4 2 0 4 3 1 2 2 2 1 1 0 1 1 1 5 5 4 4 1 3 2 1 2 6 6 4 5 10 9 8 11 10 9 9 7 7 7 5 5 5 7 10 10 8 8 8 7 7 8 13 14 19 24 25 25 25 26 26 28 29 31 31 31 30 30 29 29 28 27 26 24 24 23 22 22 22 22 21 19 20
2 2 0 3 2 2 3 4 5 5 4 4 3 2 3 1 1 1 2 3 3 4 4 6 4 1 1 1 2 5 6 3 4 8 9 8 11 11 10 9 8 7 7 6 6 7 8 11 12 13 12 11 10 8 10 12 12 13 20 25 25 26 27 26 26 27 29 29 29 30 30 29 29 28 27 26 25 25 25 24 23 22 22 22 21 21
1 2 2 2 2 3 5 3 2 3 4 4 3 2 2 2 3 4 3 2 2 5 4 4 3 2 2 3 2 3 5 7 6 6 8 9 9 10 10 10 9 8 8 7 7 8 11 12 14 15 15 14 14 13 15 15 12 13 19 23 24 26 27 28 29 29 30 30 29 29 29 29 29 28 27 27 26 26 26 25 24 24 23 24 23 23
2 2 2 3 4 3 4 5 6 5 5 4 1 1 1 0 3 4 4 4 4 3 4 4 3 2 1 3 4 4 2 5 9 8 8 9 8 9 10 9 9 9 9 8 8 9 12 13 14 15 15 14 14 14 15 16 15 15 16 18 22 23 22 24 25 22 23 28 30 29 29 28 28 29 28 28 27 27 26 26 26 26 25 25 24 24
3 1 3 3 3 4 6 7 7 7 4 2 2 4 4 1 5 6 3 3 4 1 3 5 3 2 1 2 5 4 1 5 9 9 9 10 9 9 9 7 8 9 9 10 9 9 11 12 13 14 14 14 14 13 14 15 14 10 8 10 16 19 18 18 18 13 11 18 24 24 23 23 25 27 29 29 28 27 27 26 25 26 27 26 25 25
2 2 3 4 4 3 2 2 2 4 3 2 2 3 4 3 5 5 3 4 4 3 3 4 5 3 3 6 6 2 2 7 9 8 9 9 9 10 9 7 7 8 10 10 9 8 9 11 12 13 14 14 14 14 12 12 14 13 10 9 11 13 11 12 16 16 14 17 18 14 12 15 20 23 26 27 27 27 27 26 24 24 26 27 26 25
2 3 2 5 5 5 5 4 4 2 1 2 2 3 4 4 5 6 5 3 4 6 4 1 10 11 6 8 9 5 4 7 8 9 9 8 9 10 9 9 8 8 10 11 9 8 8 10 12 15 15 13 13 14 13 11 13 14 12 9 7 6 6 6 9 13 15 16 15 13 15 21 23 21 21 23 23 24 25 26 25 23 24 26 27 27
3 4 4 2 1 3 5 4 1 3 4 4 4 5 6 5 6 6 5 4 6 7 3 2 13 17 11 10 12 10 8 7 8 9 9 8 9 10 10 11 10 10 11 11 10 9 9 9 11 14 16 15 14 14 15 15 13 13 11 8 6 6 7 7 8 9 9 11 13 14 20 26 26 22 19 19 20 21 21 22 22 20 20 22 25 28
4 2 4 4 5 4 1 1 5 7 5 4 7 7 7 6 6 5 5 6 6 6 7 9 13 16 14 12 13 12 10 9 9 10 10 10 10 10 11 12 12 11 12 12 10 9 9 9 10 13 16 18 18 16 15 15 15 15 14 11 8 8 7 6 7 9 9 11 14 16 19 24 24 22 20 20 20 20 20 20 19 17 17 16 19 24
5 2 5 4 5 7 6 5 6 8 6 7 7 6 6 6 7 7 5 4 6 10 14 14 12 11 11 11 12 11 11 11 10 9 10 11 10 11 12 13 13 12 11 11 10 8 8 10 13 15 17 18 19 18 18 17 16 17 19 17 13 10 10 12 13 13 11 11 12 13 17 19 18 17 18 19 19 18 20 21 21 19 17 14 12 14
4 2 6 4 4 6 7 8 8 6 6 6 7 7 8 8 7 6 6 8 11 12 14 16 12 7 6 8 9 10 11 11 10 9 10 10 11 12 13 12 12 11 10 10 10 8 8 10 12 14 16 17 17 18 19 19 19 20 21 22 20 15 13 16 18 17 14 11 10 10 10 11 10 11 12 13 14 16 17 20 21 20 18 16 13 11
3 2 4 5 4 4 6 9 9 6 6 7 7 8 7 6 4 5 6 9 14 15 14 14 11 6 5 8 10 11 13 13 11 11 10 9 10 13 13 13 12 11 10 9 9 8 8 8 11 14 15 16 17 19 20 20 20 22 22 22 21 18 17 18 18 17 14 12 10 9 9 9 8 8 8 8 8 10 12 13 15 16 16 16 16 14
2 2 2 3 3 3 6 7 7 6 7 5 4 4 3 3 3 6 7 9 14 17 14 10 8 7 9 12 12 13 14 13 12 11 10 10 11 12 13 13 12 11 10 9 8 8 8 10 12 15 16 16 17 19 21 21 21 21 21 21 20 19 18 17 16 16 14 13 12 10 8 9 9 8 7 6 5 6 6 7 8 9 10 11 14 16
3 3 0 1 2 3 7 6 5 5 3 3 6 5 2 0 4 7 9 11 12 11 9 9 9 9 11 12 14 14 13 12 11 10 10 11 10 10 11 11 11 11 10 8 7 7 10 13 14 16 18 17 16 18 20 21 21 20 19 19 18 18 18 17 15 15 15 14 13 11 9 8 7 7 7 5 4 4 4 3 3 3 5 7 10 13
4 4 1 1 2 1 4 5 5 1 4 7 6 3 1 5 9 10 8 9 10 10 12 14 13 11 11 10 10 11 11 11 10 9 10 11 10 11 12 11 10 11 10 7 7 8 11 13 14 15 17 17 15 16 18 19 18 17 17 18 18 17 18 18 16 15 14 15 15 12 10 10 10 9 8 7 6 4 4 4 2 1 1 3 6 9
4 2 1 1 1 1 3 4 2 4 6 5 5 5 5 6 9 10 8 3 3 11 17 16 12 11 13 12 10 9 9 9 8 6 7 9 11 11 11 10 10 10 9 8 9 10 13 14 14 15 18 20 17 16 17 17 16 15 15 16 17 17 17 18 18 16 14 15 15 14 12 10 11 12 11 11 10 9 8 7 6 5 4 4 4 6
5 3 2 2 1 1 2 1 1 2 3 6 5 4 3 0 5 8 6 5 4 6 14 15 13 13 13 14 13 11 10 9 7 4 4 8 10 10 11 12 13 13 13 12 13 15 18 18 18 20 24 24 21 17 15 16 17 15 14 14 14 15 15 17 19 18 15 14 15 15 14 12 12 13 12 12 13 13 12 11 10 8 7 6 6 6
5 4 3 2 1 2 3 2 3 2 1 4 6 7 6 2 4 8 8 4 6 4 8 13 14 15 14 14 15 13 10 9 7 3 4 7 9 11 13 16 17 17 16 15 16 19 22 22 22 23 25 24 22 18 15 16 16 16 15 13 12 13 13 14 16 17 15 14 13 13 13 13 13 13 13 13 13 14 15 14 14 13 10 8 7 7
7 4 4 4 2 3 4 3 1 1 2 5 7 8 9 3 3 8 9 4 3 3 6 9 10 12 14 14 14 13 10 8 6 4 4 7 10 12 14 14 17 17 16 16 19 21 22 21 21 22 22 22 20 18 16 15 15 16 15 13 13 13 12 11 12 14 14 13 13 13 13 13 13 13 13 14 14 15 15 14 14 15 13 10 8 9
6 4 4 4 2 2 3 1 1 2 3 4 5 7 9 4 5 9 7 4 5 3 5 11 9 8 10 11 10 7 6 7 7 5 5 10 14 15 16 15 15 17 17 19 20 20 20 20 21 20 20 20 17 15 14 14 14 15 15 13 13 15 16 12 11 12 12 11 11 12 13 14 14 14 14 15 16 15 15 15 14 14 14 12 9 9
3 2 2 2 1 1 1 1 1 2 3 4 4 7 8 3 7 7 5 6 5 2 6 11 10 6 6 8 7 4 4 7 8 7 9 13 14 14 17 19 19 20 20 20 19 19 20 20 20 19 18 16 15 14 13 12 13 14 14 13 13 16 16 14 11 10 11 10 10 11 13 14 15 15 15 16 17 16 15 16 16 15 12 11 10 10
1 1 1 1 1 1 1 2 1 3 3 3 4 6 5 4 3 3 4 3 1 3 7 10 11 9 8 9 9 8 8 9 10 10 10 12 12 12 16 20 21 21 21 20 19 18 18 18 18 17 16 14 14 14 12 12 13 13 12 12 14 15 14 13 12 11 11 11 9 10 13 15 15 16 16 16 17 18 17 16 16 16 12 8 9 12
2 1 1 1 1 0 2 3 1 2 4 4 3 5 5 4 5 5 1 3 4 6 8 9 10 11 12 12 10 11 11 11 11 11 10 10 10 12 16 19 19 19 19 20 18 16 15 16 15 15 15 13 12 13 12 12 12 12 12 11 12 13 12 11 11 10 11 11 10 11 13 14 14 15 15 16 18 19 17 16 15 16 14 11 10 13
1 2 1 2 1 1 1 1 2 5 6 3 3 2 1 2 4 4 4 5 5 5 6 6 7 9 12 14 12 11 12 11 10 10 10 9 9 12 16 18 19 19 18 18 16 14 13 14 13 12 13 12 11 11 12 12 11 11 11 11 11 12 12 11 10 10 10 11 11 12 11 11 13 13 13 15 17 16 15 15 15 14 15 14 13 15
3 4 4 2 1 2 4 4 4 4 3 3 4 4 3 4 4 5 6 6 5 5 5 6 7 7 10 13 12 10 9 9 9 9 9 9 8 11 15 17 18 19 17 16 14 12 12 12 11 10 10 10 10 10 10 10 10 9 9 10 10 11 12 12 11 11 11 11 12 12 11 11 12 11 12 14 15 14 13 14 15 14 15 15 15 17
3 1 3 2 1 1 1 1 1 3 4 5 5 4 5 5 4 5 7 6 5 5 6 6 7 6 7 9 10 8 8 9 9 9 9 9 9 12 15 17 17 17 16 14 13 11 10 9 9 9 8 8 8 9 9 9 9 10 10 9 9 10 11 12 11 11 11 12 12 12 12 12 11 10 11 13 12 11 11 13 15 16 16 17 18 19
3 2 3 2 2 1 0 2 1 3 5 5 5 5 6 6 5 5 6 6 5 6 7 7 8 7 7 8 9 8 8 10 10 9 8 8 9 11 15 16 16 14 12 10 10 9 8 7 7 7 6 5 6 7 8 9 10 11 11 11 10 10 10 11 11 12 12 13 13 13 13 13 12 11 10 10 10 10 11 12 15 16 17 18 19 20
2 2 2 1 0 2 1 3 2 2 2 4 4 4 5 6 6 6 6 6 7 8 7 8 9 8 6 7 9 9 9 10 10 10 8 8 9 12 15 16 16 15 12 10 9 8 7 6 5 3 3 5 6 7 8 9 10 11 11 11 11 10 11 11 11 12 13 14 14 14 14 15 14 13 12 11 9 10 12 14 16 17 16 16 18 20
1 2 1 1 2 1 1 4 5 6 6 8 7 5 2 3 6 7 7 7 8 8 8 8 9 10 9 9 8 9 9 8 9 10 9 8 9 13 16 17 17 16 14 12 10 7 4 2 0 1 4 6 7 8 8 9 10 11 11 10 10 11 11 11 11 12 13 13 14 15 15 16 16 16 14 13 11 11 12 13 16 17 17 16 14 15
1 1 0 2 2 1 2 3 2 3 2 3 5 6 6 3 5 8 7 7 8 8 8 7 7 9 12 13 12 12 9 7 10 13 11 10 13 16 18 19 19 17 14 11 7 3 2 2 2 4 7 7 6 7 7 8 9 10 10 10 9 9 10 11 11 12 12 13 14 15 16 16 17 17 14 11 11 11 11 12 13 14 14 14 13 12
2 2 2 3 3 3 4 2 1 3 3 1 4 5 6 5 5 5 4 4 6 6 7 8 7 5 7 10 15 17 12 10 15 17 13 13 18 20 19 19 19 16 12 8 4 4 4 6 6 7 7 6 7 7 7 9 10 10 11 11 10 9 9 10 11 12 13 14 15 16 16 16 17 18 15 12 11 12 12 13 13 12 11 11 12 13
Wind_Direction
131 109 203 205 224 225 228 209 175 279 327 143 147 152 156 158 165 152 142 154 162 162 170 151 132 149 174 147 110 268 180 58 110 156 157 163 168 160 164 165 156 157 160 161 159 157 158 158 156 158 160 162 162 163 166 168 170 170 171 174 175 179 181 174 175 177 169 167 169 163 165 169 172 176 179 179 183 190 190 187 190 195 190 187 189 190
123 164 225 221 217 226 239 230 186 199 164 136 142 148 143 156 140 83 89 101 42 29 155 136 125 144 135 79 19 347 81 49 73 153 158 164 166 158 163 166 155 152 160 159 157 155 156 157 157 158 160 161 161 164 167 169 170 170 172 175 177 180 178 169 170 173 170 171 170 164 163 164 168 176 179 179 185 193 195 192 194 199 195 192 193 194
168 220 237 228 216 229 247 247 233 214 168 149 136 134 140 164 111 70 84 101 61 33 112 160 141 120 71 64 359 324 49 44 12 115 158 165 164 158 166 167 150 150 162 162 156 154 156 157 158 159 161 161 163 165 168 169 170 170 173 175 177 180 178 172 170 169 168 173 174 168 164 162 166 174 179 179 184 191 195 193 196 201 197 194 196 198
193 236 235 227 209 218 243 244 236 229 173 156 145 140 161 170 147 92 119 132 122 59 101 143 120 69 43 61 290 313 23 30 11 11 76 157 161 160 167 168 152 154 164 166 156 151 156 157 158 161 163 162 162 163 166 169 170 171 173 176 178 181 181 178 177 174 171 173 179 178 173 168 166 170 182 189 189 192 194 192 196 201 198 194 195 200
220 237 225 221 213 208 233 242 226 209 187 180 173 161 161 176 180 138 133 129 78 37 99 119 85 26 34 121 241 336 14 353 12 9 9 44 130 145 157 168 157 159 168 168 155 150 157 158 158 162 163 163 162 163 166 170 172 173 175 178 180 183 183 181 181 180 175 176 179 177 171 170 169 170 182 188 188 190 193 192 195 199 199 196 197 200
236 243 214 212 226 211 224 242 226 196 184 189 195 186 167 168 154 123 127 123 101 102 165 163 118 140 183 200 223 21 22 325 3 353 357 25 11 130 149 166 155 163 173 167 153 153 159 159 159 162 163 164 165 166 169 172 174 175 176 179 181 183 184 184 182 181 180 182 183 178 169 167 168 170 177 183 185 189 193 193 195 197 198 196 199 203
237 239 203 207 224 215 220 240 235 202 170 186 213 191 160 153 139 135 137 133 146 169 188 205 186 118 175 208 215 169 131 253 302 302 301 35 319 193 159 161 144 165 176 164 153 155 159 160 159 162 164 166 168 169 169 171 174 176 177 180 182 183 184 184 181 181 186 190 190 187 177 172 170 171 177 184 187 191 194 194 194 196 196 194 199 205
231 225 202 207 218 215 214 234 236 193 168 227 208 166 151 157 154 151 147 134 132 115 166 209 195 108 167 179 201 185 167 217 239 245 248 186 267 280 218 173 150 169 178 166 156 158 162 162 162 164 167 168 169 169 168 170 173 176 179 181 182 183 184 184 181 183 192 195 192 188 182 180 178 176 179 185 188 191 193 195 196 197 194 192 197 203
241 221 200 195 210 218 211 226 224 181 182 241 178 155 159 168 159 153 146 112 69 97 159 209 180 102 157 158 186 184 169 202 217 216 231 205 225 268 257 212 188 187 185 172 162 162 164 164 166 166 168 169 170 170 169 171 175 177 180 182 182 183 184 184 183 188 196 197 190 185 182 183 185 184 183 185 188 189 190 195 196 194 192 196 203 206
253 234 202 180 199 217 218 226 217 186 201 180 146 151 159 153 138 132 124 82 49 59 186 208 189 116 159 188 184 185 181 198 204 201 212 204 222 252 255 221 211 214 194 180 168 166 166 166 168 167 167 169 170 172 173 173 176 178 179 181 183 183 183 185 187 191 196 195 188 184 184 185 186 187 186 185 187 188 191 195 192 189 192 202 209 209
255 264 230 185 192 209 219 227 210 190 192 148 139 146 112 77 78 89 88 81 78 309 224 202 196 138 141 214 206 201 188 177 177 185 193 195 215 236 245 219 201 208 194 182 171 169 167 166 168 167 167 169 170 173 174 174 176 177 180 182 184 185 185 188 191 193 196 194 188 185 185 186 185 185 186 186 187 189 193 197 192 188 191 202 211 211
276 282 260 218 194 196 206 215 205 187 176 130 136 144 113 63 21 48 32 56 106 262 227 184 185 140 132 218 211 210 199 165 168 180 185 190 207 222 228 208 199 215 188 170 162 169 167 163 167 168 167 168 169 171 173 174 176 178 181 182 184 186 188 190 193 195 198 196 189 186 186 184 183 185 187 189 191 193 195 197 194 190 191 201 210 212
283 250 247 236 203 176 158 191 232 212 118 97 126 140 127 138 85 75 30 84 184 249 203 162 158 128 243 249 197 193 200 178 172 179 182 188 199 208 212 200 197 205 177 153 147 167 170 163 164 168 168 169 170 172 174 175 177 179 182 184 184 187 189 192 194 196 198 199 195 188 186 187 188 190 192 193 195 196 197 196 193 191 192 198 206 211
294 270 266 223 209 175 115 138 221 237 96 102 141 145 130 153 150 149 180 168 206 239 170 148 142 129 265 313 158 181 190 180 174 178 179 187 196 197 197 154 124 360 49 74 99 147 171 171 168 166 168 172 174 175 175 175 177 180 183 186 187 188 190 193 195 197 197 201 200 194 191 192 194 195 196 195 194 195 196 196 194 194 194 197 204 210
175 261 256 205 218 211 110 140 171 164 137 149 163 141 139 169 158 153 180 186 194 176 116 129 143 171 198 308 354 61 134 147 155 146 147 178 188 141 95 61 61 52 39 32 31 28 34 149 169 170 169 174 177 177 176 177 179 180 182 187 189 189 191 194 196 197 199 201 203 199 196 197 200 201 200 196 194 193 195 197 197 198 199 200 204 209
161 226 250 230 205 158 124 159 151 111 56 255 165 116 143 186 162 154 188 171 136 123 85 81 47 309 223 270 340 15 84 119 129 127 130 154 155 127 127 124 96 82 75 65 42 358 0 32 66 144 163 174 180 179 178 178 179 181 183 186 189 190 192 195 197 199 200 202 203 200 197 198 203 206 203 200 198 196 195 198 199 200 201 204 205 206
76 259 289 279 181 154 144 160 121 111 167 290 56 145 218 224 162 150 172 119 100 109 104 76 77 360 212 281 341 358 88 118 126 121 114 115 111 111 120 110 90 90 109 124 139 212 245 38 34 49 100 149 170 173 177 181 181 183 185 186 187 190 191 195 199 200 202 202 202 201 198 198 203 206 206 203 201 199 198 200 202 200 202 205 206 208
111 271 296 264 180 196 126 110 68 85 126 95 51 230 257 275 148 123 123 116 89 104 119 48 51 150 163 180 322 334 104 124 122 111 105 103 92 76 72 88 98 105 121 142 173 198 123 82 29 2 93 126 138 139 159 178 184 184 186 187 187 187 191 195 199 201 202 203 203 203 201 200 203 205 205 203 202 202 202 204 205 204 205 206 206 209
106 75 301 299 152 346 27 78 71 353 59 125 168 215 95 135 185 38 131 149 104 108 122 31 15 164 163 236 215 201 125 116 113 102 98 95 88 84 87 88 90 95 97 109 145 160 110 131 188 224 185 122 121 120 128 155 181 186 186 189 190 191 194 196 198 200 202 204 205 205 205 204 205 206 206 204 203 204 206 208 208 208 209 208 206 208
45 96 288 308 42 56 15 59 168 305 348 75 85 14 61 157 167 170 182 157 127 134 141 77 349 229 229 258 193 124 41 60 102 95 86 88 88 85 89 88 80 77 70 64 73 70 107 133 167 191 178 129 134 141 124 125 159 180 186 192 194 196 197 196 197 199 201 204 205 206 207 207 209 210 210 208 205 206 208 209 210 211 212 212 209 206
9 85 216 299 9 72 21 312 170 178 49 52 25 349 299 307 27 184 265 87 121 135 142 134 187 262 250 225 131 90 53 25 91 96 89 86 87 81 80 83 76 70 62 49 68 81 85 97 112 128 127 123 142 160 127 109 130 164 183 192 195 196 195 193 197 199 202 204 205 207 208 209 210 212 213 214 212 211 211 211 213 213 214 217 215 208
10 68 78 298 9 112 229 229 168 156 150 139 148 210 216 192 106 95 321 326 95 117 146 154 161 237 346 58 100 102 102 94 73 88 95 87 85 86 83 81 76 69 61 51 68 83 80 83 89 93 101 105 106 118 122 114 113 145 177 190 194 196 194 193 196 202 205 206 206 208 210 211 211 211 213 215 217 217 216 216 216 214 214 218 219 216
64 77 38 291 237 211 246 252 101 105 121 128 149 186 182 158 129 138 187 246 72 88 105 105 106 105 31 29 71 82 103 118 101 86 92 86 83 88 85 82 79 70 60 52 59 79 83 83 82 83 87 88 89 96 111 128 150 174 184 190 194 196 195 194 198 204 206 207 208 211 212 213 212 212 212 214 217 220 220 221 220 216 215 218 220 220
23 64 37 309 296 322 327 350 11 20 62 74 350 352 25 312 122 130 159 154 109 104 115 86 78 118 31 16 82 73 40 124 119 111 106 97 89 89 86 83 82 75 66 57 51 66 78 78 75 74 73 74 84 92 101 124 159 183 188 193 199 199 195 194 198 203 205 205 207 210 210 211 212 212 212 213 216 220 222 225 225 222 221 221 221 222
360 42 64 27 11 15 4 5 356 346 24 55 315 336 342 355 106 92 68 83 83 99 133 117 110 130 119 77 82 74 73 123 118 116 113 107 102 99 92 84 83 80 72 64 56 58 67 70 71 73 72 72 78 88 100 115 134 157 185 205 208 203 197 195 197 202 213 211 209 207 204 203 207 210 212 213 215 217 221 227 230 228 226 225 223 224
18 31 78 101 113 117 90 22 316 296 322 329 318 13 15 25 87 99 89 72 91 117 99 113 127 109 100 111 98 65 118 124 122 116 109 107 109 107 102 93 88 85 79 72 63 59 63 66 68 70 73 76 79 84 95 116 133 150 180 212 219 211 204 206 206 209 222 225 222 224 219 207 205 207 209 212 215 217 221 225 231 233 231 229 228 227
80 24 56 121 144 160 171 208 242 239 72 2 348 38 37 32 67 99 106 99 137 124 57 90 140 133 143 144 138 162 169 136 131 124 116 116 113 109 107 101 94 89 85 78 69 66 65 64 65 68 70 72 76 79 80 95 126 144 160 184 207 202 192 201 205 211 224 228 227 238 240 227 217 208 206 209 213 218 221 224 227 231 231 232 231 230
86 5 3 61 149 191 189 214 301 39 62 70 62 43 26 36 66 80 98 140 147 115 73 182 144 137 157 166 154 168 173 146 138 135 130 127 120 116 113 106 98 91 85 81 74 71 69 66 65 68 69 66 67 75 77 78 91 110 122 134 143 145 160 178 179 188 217 223 216 223 234 235 229 218 210 209 210 213 216 217 220 223 226 230 232 232
104 8 338 357 355 355 360 9 43 49 39 46 64 60 41 49 81 90 114 148 146 124 144 167 153 144 157 165 162 167 166 152 148 144 136 131 126 122 116 106 97 90 87 87 84 77 74 72 67 65 67 66 65 69 73 73 77 84 88 92 107 123 126 126 141 163 190 207 208 214 226 233 231 221 214 214 213 213 214 214 214 215 218 223 230 233
110 352 325 5 8 351 353 7 37 51 38 20 31 44 43 59 102 120 125 126 112 119 135 143 143 144 151 160 163 161 156 149 145 141 136 131 126 118 110 104 99 93 89 89 86 82 81 78 73 69 67 66 64 64 63 64 71 77 78 80 85 94 92 87 98 120 143 168 186 199 210 219 220 215 213 217 219 222 224 222 220 222 223 224 231 238
75 329 316 29 39 329 341 6 17 39 53 33 13 10 26 46 71 90 99 99 98 111 128 130 130 140 153 154 147 137 139 141 138 138 135 126 120 112 102 98 96 91 86 82 79 78 79 80 76 70 67 66 65 65 62 62 66 70 71 73 76 79 82 82 87 99 113 129 145 160 177 191 197 199 202 208 214 220 224 224 227 232 233 232 236 246
36 346 330 45 59 310 331 0 356 14 57 43 8 355 11 37 57 74 104 122 123 124 127 129 135 152 155 138 125 122 130 133 133 131 124 117 119 113 106 102 97 91 85 80 76 72 71 74 74 69 68 70 70 68 66 67 70 71 71 74 77 80 81 79 78 84 93 101 109 122 131 137 146 160 169 177 192 204 211 218 227 235 239 238 241 246
12 29 360 48 71 295 317 349 357 25 49 24 323 301 331 360 48 80 90 116 133 136 139 145 153 154 142 131 124 125 128 129 130 128 120 120 121 114 112 111 105 100 93 82 76 71 70 76 76 71 69 73 75 72 71 75 78 78 77 78 83 86 87 85 78 73 74 76 75 80 98 112 114 110 114 132 155 177 189 201 217 232 242 242 242 244
16 73 138 64 100 286 308 341 23 46 56 257 250 236 228 51 85 98 114 135 142 133 126 134 140 141 138 133 129 130 132 130 133 132 127 125 123 117 116 114 110 108 102 93 85 77 77 83 85 79 72 72 80 82 79 80 83 81 76 73 77 82 83 83 80 71 66 65 61 56 57 64 75 76 71 73 90 111 128 145 176 217 240 241 238 239
31 44 335 360 104 244 320 19 52 74 229 240 261 297 57 108 104 92 104 142 146 120 114 129 143 143 131 120 119 122 124 125 127 129 128 127 124 121 117 114 114 112 106 104 101 82 77 83 89 86 72 65 77 92 91 88 86 82 74 68 68 72 71 69 70 68 63 60 57 54 53 48 45 44 42 36 34 39 48 53 55 45 291 268 255 248
82 51 351 11 75 322 16 57 121 227 259 289 314 354 32 75 98 86 59 18 149 137 135 140 144 134 120 112 106 104 105 106 101 99 117 123 120 121 123 123 121 115 111 116 109 88 81 85 86 77 65 63 79 99 98 92 92 90 82 72 66 64 60 55 53 53 54 54 51 50 53 50 38 33 32 31 28 26 22 13 4 355 337 321 303 281
100 89 33 13 18 66 88 80 262 272 327 337 328 323 337 330 142 123 93 1 351 131 141 142 135 129 126 123 120 119 115 103 84 67 104 119 116 116 120 119 115 113 112 111 99 87 86 87 79 71 68 71 81 94 93 87 88 90 86 79 70 62 56 47 42 40 44 46 44 43 45 42 33 27 26 25 23 22 21 15 7 358 342 329 325 316
68 89 94 81 354 44 82 53 3 23 344 286 280 291 301 273 147 120 105 54 1 54 126 140 139 135 136 136 138 142 132 108 99 116 128 118 111 108 107 107 107 108 108 101 89 84 85 84 77 74 75 74 74 78 83 82 82 81 77 72 66 60 57 50 39 31 32 34 34 36 38 36 31 28 25 22 16 11 8 6 7 6 358 343 336 330
30 48 84 84 19 27 80 90 64 140 222 250 258 285 302 302 102 89 95 108 322 6 101 123 132 136 140 145 147 147 135 117 126 157 138 108 102 102 104 104 104 104 101 95 88 84 83 81 76 73 72 69 66 68 74 78 77 71 64 57 50 42 41 44 36 23 18 20 21 24 27 27 24 22 22 19 14 9 3 358 358 360 359 353 345 342
17 20 46 56 15 11 80 96 258 201 230 260 268 285 292 305 68 76 107 177 268 286 133 125 123 131 137 139 138 130 124 135 147 159 130 105 98 99 104 105 104 101 97 92 88 84 80 77 74 69 65 63 62 61 64 69 67 59 52 49 44 31 22 22 23 14 7 5 5 6 12 18 20 18 17 13 10 9 9 5 359 353 353 355 353 348
3 16 51 87 73 349 71 114 279 260 256 272 279 288 297 349 65 86 167 221 268 252 148 124 117 124 127 123 117 89 87 121 132 132 118 105 99 100 102 101 99 97 94 90 89 86 81 76 73 70 66 62 59 57 58 62 59 52 47 45 38 25 15 14 14 4 355 354 353 352 358 7 12 12 10 9 9 6 4 6 7 1 354 356 5 7
339 355 14 105 136 280 127 115 311 279 273 274 275 299 340 56 104 183 217 260 327 121 124 115 120 128 116 107 110 113 114 116 117 116 110 105 105 104 99 97 95 93 90 88 87 86 82 76 73 71 65 58 55 54 53 56 55 47 40 36 27 14 7 10 11 3 358 1 359 351 350 352 358 3 3 4 4 1 358 2 9 10 4 2 15 24
180 155 309 231 195 189 82 73 77 235 269 304 329 339 12 87 180 208 166 29 37 94 106 108 120 126 119 113 114 119 120 116 114 113 107 105 106 101 98 98 97 93 90 87 84 82 82 78 73 70 65 57 52 49 43 43 44 35 26 21 11 360 355 360 3 1 4 8 3 353 347 344 347 353 355 356 358 358 3 11 15 16 18 20 22 24
199 160 206 245 197 112 112 189 196 218 258 306 82 110 16 110 165 168 109 67 48 68 88 97 106 114 119 121 119 119 120 118 118 118 113 110 107 102 100 101 99 96 93 87 82 79 79 76 69 64 59 50 45 43 36 33 31 23 16 11 1 350 346 346 347 347 351 354 352 350 346 339 339 341 342 347 352 357 7 16 19 22 23 20 18 15
231 182 157 165 177 155 176 207 220 223 259 3 79 128 127 94 107 115 102 89 75 68 74 91 98 102 111 117 120 120 120 119 120 118 114 112 110 105 104 103 102 100 94 87 83 79 72 70 65 57 47 36 33 33 27 24 20 12 9 6 359 352 348 342 336 334 338 340 341 345 344 332 327 329 331 337 345 353 360 4 7 11 11 7 5 2
253 144 116 115 336 324 160 185 195 157 129 81 74 100 102 94 95 96 96 99 104 102 100 101 103 100 102 110 116 117 118 121 120 116 114 112 107 105 105 103 100 98 92 84 83 81 77 73 67 58 46 30 22 18 11 8 5 359 357 354 350 350 350 346 339 333 333 334 332 335 339 333 323 318 322 331 339 347 352 354 356 357 358 358 358 356
329 27 81 89 68 76 30 320 299 162 143 117 104 93 80 80 88 97 106 119 124 120 122 121 116 111 103 106 114 120 125 127 124 121 120 117 113 112 109 105 100 95 90 88 88 89 90 83 68 55 41 21 14 14 8 3 1 358 356 352 346 341 338 339 341 336 331 332 331 329 332 334 327 311 307 321 336 340 339 343 347 350 352 352 352 350
320 15 55 37 75 154 198 306 332 79 50 41 74 96 95 99 103 103 114 126 125 125 131 132 127 123 118 120 123 125 130 133 133 132 128 122 121 121 117 114 111 106 103 105 107 103 94 83 68 47 36 32 29 22 7 355 350 347 347 349 350 344 334 331 334 334 330 328 327 326 328 332 330 318 304 304 315 324 327 332 335 336 338 341 342 340
326 5 353 343 349 6 8 358 27 58 34 10 16 28 41 112 121 116 113 115 118 122 129 134 136 136 137 138 131 123 127 133 129 126 125 124 127 127 125 122 118 115 113 112 110 103 89 75 47 81 71 54 32 13 356 344 339 337 336 339 342 339 333 327 324 325 328 325 323 324 326 328 331 328 311 294 293 304 312 318 322 320 319 323 330 334
32 336 292 76 49 280 254 305 342 109 98 360 359 3 353 9 116 124 125 126 130 135 137 137 142 143 143 143 135 124 123 132 130 126 127 133 133 132 131 128 124 123 123 116 111 124 176 204 156 99 79 55 28 11 359 353 356 357 355 351 345 338 335 333 327 322 324 326 325 325 325 327 332 334 319 293 291 303 306 310 316 315 314 321 326 326
158 185 169 131 142 208 222 266 340 116 131 317 338 358 357 11 67 90 110 144 160 167 156 146 147 152 156 157 149 140 138 144 141 134 131 140 142 140 139 139 136 133 129 124 133 169 160 135 115 95 71 47 35 27 19 18 22 21 15 11 10 3 355 350 344 335 328 325 321 320 322 324 328 331 323 303 298 307 307 310 318 318 315 320 321 314